Regional Weather Roundup
Issued by NWS

Home | Current Version | Previous Version | Graphics & Text | Print | Product List | Glossary On
Versions: 1 2 3 4 5 6 7 8 9 10 11 12 13 14 15 16 17 18 19 20 21 22 23 24 25 26 27 28 29 30 31 32 33 34 35 36 37 38 39 40 41 42 43 44 45 46 47 48 49 50
000
ASUS43 KLSX 250010
RWRMO

WEATHER SUMMARY FOR MISSOURI
NATIONAL WEATHER SERVICE SPRINGFIELD MO
700 PM CDT SUN JUL 24 2016

NOTE: "FAIR" INDICATES FEW OR NO CLOUDS BELOW 12,000 FEET WITH NO
       SIGNIFICANT WEATHER AND/OR OBSTRUCTIONS TO VISIBILITY.
       CURRENT SKY AND/OR WEATHER CONDITIONS ARE NOT AVAILABLE FOR
       CHILLICOTHE AND FARMINGTON.

MOZ001>031-035>038-043-044-053-054-250100-
...NORTHERN AND WESTERN MISSOURI...

CITY           SKY/WX    TMP DP  RH WIND       PRES   REMARKS
KANSAS CTY INT CLOUDY    86  79  79 N10       29.96S HX  99
6HR MIN TEMP:  86; 6HR MAX TEMP:  93;

KANSAS C DTWN  CLOUDY    90  75  61 N14       29.93S HX 100
6HR MIN TEMP:  90; 6HR MAX TEMP:  97;

LEE`S SUMMIT   MOSUNNY   90  74  59 N14       29.95R HX  99
6HR MIN TEMP:  90; 6HR MAX TEMP:  97;

ST JOSEPH      MOSUNNY   81  71  71 N10       29.97F
6HR MIN TEMP:  81; 6HR MAX TEMP:  88;

CHILLICOTHE      N/A     87  80  79 NW5       29.96R HX 103
6HR MIN TEMP:  87; 6HR MAX TEMP:  96;

KIRKSVILLE     CLOUDY    81  65  58 N9        29.97R
6HR MIN TEMP:  81; 6HR MAX TEMP:  92;


$$
MOZ066>068-077>081-088>096-101>105-250100-
...SOUTHWEST MISSOURI...

CITY           SKY/WX    TMP DP  RH WIND       PRES   REMARKS
SPRINGFIELD    SUNNY     96  68  39 W3        29.95S HX 101
6HR MIN TEMP:  94; 6HR MAX TEMP:  98;

JOPLIN         SUNNY     95  74  50 VRB5      29.93S HX 105
6HR MIN TEMP:  93; 6HR MAX TEMP:  98;

BRANSON        PTSUNNY   90  77  66 S7        29.98R HX 102

$$
MOZ032>034-039>042-045>050-055>058-069>072-250100-
...CENTRAL MISSOURI...

CITY           SKY/WX    TMP DP  RH WIND       PRES   REMARKS
COLUMBIA       SUNNY     93  78  61 W7        29.92S HX 108
6HR MIN TEMP:  91; 6HR MAX TEMP:  95;

JEFFERSON CITY SUNNY     94  76  55 NW6       29.90R HX 106
6HR MIN TEMP:  92; 6HR MAX TEMP:  98;

ROLLA          MOSUNNY   91  76  61 SW6       29.93S HX 103
6HR MIN TEMP:  91; 6HR MAX TEMP:  96;

SEDALIA        SUNNY     93  78  61 SW5       29.93F HX 108
6HR MIN TEMP:  93; 6HR MAX TEMP:  97;

WHITEMAN AFB   SUNNY     93  77  60 NW3       29.91S HX 107
OSAGE BEACH    SUNNY     94  76  55 SW5       29.94R HX 106

$$
MOZ051-052-059>065-250100-
...EAST CENTRAL MISSOURI...

CITY           SKY/WX    TMP DP  RH WIND       PRES   REMARKS
ST LOUIS INTL  MOSUNNY   96  77  54 S13       29.90S HX 111
6HR MIN TEMP:  96; 6HR MAX TEMP: 101;

SPIRIT OF STL  MOSUNNY   93  79  63 S6        29.88S HX 110
6HR MIN TEMP:  93; 6HR MAX TEMP:  99;

ST CHARLES     SUNNY     94  81  66 S3        29.87S HX 115
6HR MIN TEMP:  93; 6HR MAX TEMP:  97;


$$
MOZ072>076-082>087-097>100-106>115-250100-
...SOUTH CENTRAL AND SOUTHEAST MISSOURI...

CITY           SKY/WX    TMP DP  RH WIND       PRES   REMARKS
CAPE GIRARDEAU MOSUNNY   89  76  65 SE6       29.93R HX 100
6HR MIN TEMP:  88; 6HR MAX TEMP:  92;

FARMINGTON     MOSUNNY   87  79  76 S7        29.97R HX 101
6HR MIN TEMP:  87; 6HR MAX TEMP:  94;

POPLAR BLUFF   CLOUDY    89  77  67 S6        29.93S HX 101
6HR MIN TEMP:  88; 6HR MAX TEMP:  91; 6HR PCP:  0.01;

WEST PLAINS    CLOUDY    89  75  63 S5        30.00R HX  99
6HR MIN TEMP:  86; 6HR MAX TEMP:  95; 6HR PCP: TRACE;


$$



USA.gov is the U.S. government's official web portal to all federal, state and local government web resources and services.